DELTA 1 DEB, 7091

Orbit data source: Space-Track

DELTA 1 DEB, 7091 is space debris in LEO originally from a launch on Tue, 06 Nov 1973 UTC launched from the Air Force Western Test Range (AFWTR). Debris objects in space refer to the collection of defunct objects orbiting the Earth. Examples of debris include non-operational satellites, rocket bodies, and fragments generated from explosions, collisions, or faulty payload assembly.

Loading next visibility...
Identifier
7091, 1973-086CK
Orbit
LEO
Country
Flag of USUS
Related business
Manufacturer
Unknown
Mission
Spacecraft
Bus & Motor
Unknown
Mass
Unknown
Launch date (UTC)
1973-11-06 (53 years ago)
Launch vehicle
Unknown
Launch site
Air Force Western Test Range (AFWTR)
Object type
Payload
Rocket body
Debris
Shape & HBR
Unknown shape, 0.6 m
Radar Cross Section
Medium (>0.1 m² and <1 m²)

Expand to show TLE details & history
Last TLE update: 17 hours ago

TLE from 17 hours ago
0 DELTA 1 DEB
1 07091U 73086CK  26263.25272406 -.00000296  00000-0 -29654-2 0  9995
2 07091 102.1592  12.0463 0276318 342.1094  44.1384 11.96364478307491
Epoch: 2026-09-20T06:03Z
TLE epoch observation values (Epoch: 2026-09-20T06:03:55.358Z)
Latitude
27.85326°
Longitude
-84.58952°
Altitude
1,543.158 km
Speed
7.166 km/s
True Right ascension
00h 22m 09s
True Declination
27° 43' 32"
Sunlit
Object was in full shadow at epoch
Visualization orbit readout
Latitude
Unknown
Longitude
Unknown
Altitude
Unknown
Speed
Unknown
Apparent Right ascension
Unknown
Apparent Declination
Unknown
Sunlit
N/A
Visualization observer readout
Local Sidereal Time
16:16:52
Azimuth
Unknown
Elevation
Unknown
Doppler factor
Unknown
Orbital elements
Apogee altitude
1,917.888 km
Perigee altitude
1,471.747 km
Semi-major axis
8,072.954 km
Eccentricity
0.02763
Inclination
102.1592°
RAAN
12.0463°
Arg. of periapsis
342.1094°
True anomaly
46.39884°
Mean anomaly
44.1384°
Eccentric anomaly
45.26301°
Mean motion
2.99223 °/min
Orbital period
120.31 mins
BSTAR
-0.0029654
Loading maneuver chart data...
Computing Atmospheric mass density...
Loading historical data...
Loading historical data...
Loading historical data...
Loading historical data...
Loading historical data...
Loading historical data...
Loading historical data...

Documentation

Showing up to 5 results
|